User: anonymous
Location: Unspecified
(0.0000°N, 0.0000°E)
Time: 01:29:02
(UTC+02:00)
Language:

Cosmos 1515 Rocket - Orbit

View from above orbital plane
View from above orbital plane
View from above satellite
View from above satellite

Ground track
Ground track

The orbit data is extracted from the following two-line orbital elements,

1 14552U 83122B   14110.05915229  .00000933  00000-0  11228-3 0  8309
2 14552 082.5247 076.6987 0017252 008.9776 036.1276 14.82792188638118
Epoch (UTC): 20 April 2014 01:25:10
Eccentricity: 0.0017252
inclination: 82.5247°
perigee height: 608 km
apogee height: 632 km
right ascension of ascending node: 76.6987°
argument of perigee: 8.9776°
revolutions per day: 14.82792188
mean anomaly at epoch: 36.1276°
orbit number at epoch: 63811

The dashed part of the orbit path shows where the satellite is in the earth's shadow,  

DLR